User: anonymous   Login
Location: Pine Mountain Observatory
(43.7910°N, 120.9377°W)
Time: 18:34:32
(UTC-07:00)
Language:

Meteor 2-19 Rocket - Orbit

View from above orbital plane
View from above orbital plane
View from above satellite
View from above satellite

Ground track
Ground track

The orbit data is extracted from the following two-line orbital elements,

1 20671U 90057B   17086.92384160 +.00000022 +00000-0 +67437-5 0  9998
2 20671 082.5444 076.7094 0015115 180.2659 179.8496 13.84606929351542
Epoch (UTC): 27 March 2017 22:10:19
Eccentricity: 0.0015115
inclination: 82.5444°
perigee height: 936 km
apogee height: 958 km
right ascension of ascending node: 76.7094°
argument of perigee: 180.2659°
revolutions per day: 13.84606929
mean anomaly at epoch: 179.8496°
orbit number at epoch: 35154

The dashed part of the orbit path shows where the satellite is in the earth's shadow,  

DLR